COSMOS 422

Satellite information

Favourite Embed

Satellite Type and Status

PAYLOADIN ORBIT

Key statistics

Satellite COSMOS 422 at a glance.

Uptime

19831

Days in orbit

Revolutions

≈ 13.7

Per day

Orbit

LEO

Low Earth Orbit

Inclination

74.0

Latest

Satellite identification and parameters

Extended collection of information and parameters for COSMOS 422.

Object identification

Identified? True

Debris? False

Object name: COSMOS 422

International designator: 1971-046A

Object number (NORAD): 5238

Object ID (CCSDS): 5238

Country: COMMONWEALTH OF INDEPENDENT STATES (CIS)

Current information (Y/N): Y

RCS size: LARGE

Orbital parameters

Period: 104.936 minutes

Inclination: 74.018 deg

SMA: 7369.579 km

Apoapsis: 1002.934 km

Periapsis: 979.953 km

RAAN: 284.0405 deg

Eccentricy: 0.0015592

Argument of periapsis: 317.4113 deg

Mean anomaly: 162.0906 deg

Mean motion: 13.72267484 rev/day

Mean motion (dot): 0.00000047 rev/day2

B* drag term: 0.000076151296 1/REarth

Two-line elements (TLE)

Creation date: Sept. 5, 2025, 7:38 p.m.

Reference frame: TEME

Reference center: EARTH

Epoch: Sept. 5, 2025, 2:31 p.m. UTC

TLE line 0: 0 COSMOS 422

TLE line 1: 1 05238U 71046A 25248.60515262 .00000047 00000-0 76151-4 0 9999

TLE line 2: 2 05238 74.0180 284.0405 0015592 317.4113 162.0906 13.72267484718447

Live tracking on map

Real-time ground track for satellite COSMOS 422.

In-orbit conjunctions

A list of the most updated potential collisions computed for object COSMOS 422.

Target Orbit TCA Probability of collision Miss distance Type
SL-16 DEB LEO 2024-11-07 14:57:32 0.0001860313 887.0 (m) DEBRIS
THORAD AGENA D DEB SSO 2024-08-06 12:15:19 0.03005916 10.0 (m) DEBRIS

Associated space launch

The first soviet navigation system called Tsiklon consisted of Zaliv satellites in low earth orbit.

COSMOS 422 was lifted into orbit during the mission ‘Kosmos-3M | Zaliv 8’, on board a Kosmos-3M space rocket.

The launch took place on May 22, 1971, 12:51 a.m. from 132/1 (132L).

For more information about the launch, click the button.

Launch to space Kosmos-3M | Zaliv 8
Kosmos-3M | Zaliv 8

Agency: N/A

Status: Launch Successful

Launch date: May 22, 1971, 12:51 a.m. UTC

Rocket: Kosmos-3M

Launch pad: 132/1 (132L)

Location: Plesetsk Cosmodrome, Russian Federation

...

Latest news about this satellite

There are no fresh news available about this satellite. Check back as we update our databases every day.


Newsletter sign-up

Weekly statistics, charts and insights to help you stay on top of the space industry.